User: anonymous   Login
Location: Keeble Observatory
(37.7625°N, 77.4755°W)
Time: 14:29:16
(UTC-05:00)
Language:

Cosmos 1484 Rocket - Orbit

View from above orbital plane
View from above orbital plane
View from above satellite
View from above satellite

Ground track
Ground track

The orbit data is extracted from the following two-line orbital elements,

1 14208U 83075B   14355.85545291  .00005852  00000-0  37740-3 0  2026
2 14208 097.4031 025.9572 0042169 021.5391 338.7599 15.07926841710470
Epoch (UTC): 21 December 2014 20:31:51
Eccentricity: 0.0042169
inclination: 97.4031°
perigee height: 513 km
apogee height: 572 km
right ascension of ascending node: 25.9572°
argument of perigee: 21.5391°
revolutions per day: 15.07926841
mean anomaly at epoch: 338.7599°
orbit number at epoch: 71047

The dashed part of the orbit path shows where the satellite is in the earth's shadow,  

DLR